GW0339 Weather Reports


Display with metric or nautical units.
time (UTC)temp
F
wind
direction
speed
MPH
gust
MPH
rain 1hr
in
rain 24hr
in
rain mn
in
humidity
%
barometer
mb
20260509235807 57 283 0.0 0.0 0.00 0.02 0.01 94 1033.7
20260509233600 56 242 0.0 0.0 0.00 0.02 0.01 94 1033.7
20260509232550 56 290 0.0 0.0 0.00 0.02 0.01 94 1033.7
20260509225306 56 252 0.0 0.0 0.00 0.02 0.01 94 1033.4
20260509224318 56 207 0.0 0.0 0.00 0.02 0.01 94 1033.4
20260509222201 55 302 0.0 0.0 0.00 0.02 0.01 94 1033.2
20260509221147 55 318 0.0 0.0 0.00 0.02 0.01 94 1033.2
20260509220155 55 318 0.0 0.0 0.00 0.02 0.01 94 1033.0
20260509215152 55 318 0.0 0.0 0.00 0.02 0.01 94 1032.8
20260509214144 55 338 0.0 0.0 0.00 0.02 0.01 94 1032.6
20260509210813 55 177 0.0 0.0 0.00 0.02 0.01 94 1032.2
20260509205833 55 177 0.0 0.0 0.00 0.03 0.01 94 1032.2
20260509204836 55 177 0.0 0.0 0.00 0.03 0.01 94 1032.0
20260509203830 55 177 0.0 0.0 0.00 0.03 0.01 94 1031.9
20260509202836 55 177 0.0 0.0 0.00 0.03 0.01 94 1031.8
20260509201813 55 177 0.0 0.0 0.00 0.03 0.01 94 1031.8
20260509200807 55 177 0.0 0.0 0.00 0.03 0.01 94 1031.7
20260509195741 55 177 0.0 0.0 0.00 0.03 0.01 94 1031.7
20260509194754 55 177 0.0 0.0 0.00 0.03 0.01 94 1031.6
20260509193817 55 194 0.0 0.0 0.00 0.03 0.01 93 1031.3
20260509190516 55 199 0.0 0.0 0.00 0.04 0.01 93 1031.1
20260509185509 55 186 0.0 0.0 0.00 0.05 0.01 93 1031.0
20260509184457 55 185 0.0 0.0 0.00 0.05 0.01 93 1030.9
20260509183451 55 223 0.0 0.0 0.00 0.05 0.01 93 1030.9
20260509182420 56 204 0.0 3.0 0.00 0.04 0.01 93 1030.9
20260509181352 56 222 0.0 0.0 0.00 0.04 0.00 93 1030.8
20260509180318 56 194 0.0 2.0 0.00 0.04 0.00 93 1030.7
20260509174203 56 213 0.0 0.0 0.00 0.04 0.00 93 1030.7
20260509173137 56 171 1.0 6.0 0.00 0.04 0.00 93 1030.7
20260509172157 56 182 2.0 6.0 0.00 0.04 0.00 93 1030.7
20260509171123 56 188 0.0 2.0 0.00 0.04 0.00 93 1030.7
20260509170107 56 181 0.0 0.0 0.00 0.05 0.00 92 1030.8
20260509164030 56 188 1.0 4.0 0.00 0.05 0.00 92 1030.8
20260509163031 56 171 1.0 4.0 0.00 0.06 0.00 92 1030.8
20260509162049 57 193 1.0 4.0 0.00 0.06 0.00 92 1030.9
20260509161024 57 190 2.0 8.0 0.00 0.06 0.00 91 1030.9
20260509160031 57 168 3.0 8.0 0.00 0.05 0.00 91 1031.0
20260509155053 57 165 3.0 8.0 0.00 0.05 0.00 91 1030.8
20260509154048 57 196 3.0 8.0 0.00 0.05 0.00 92 1030.9
20260509153049 57 191 2.0 5.0 0.00 0.05 0.00 92 1030.9
20260509152035 56 178 2.0 6.0 0.00 0.05 0.00 92 1030.9
20260509151005 57 188 1.0 6.0 0.00 0.05 0.00 92 1030.9
20260509150027 57 188 0.0 0.0 0.00 0.05 0.00 92 1031.0
20260509145038 57 154 0.0 4.0 0.00 0.05 0.00 92 1031.0
20260509144030 57 95 0.0 0.0 0.00 0.05 0.00 92 1031.0
20260509143005 57 160 0.0 0.0 0.00 0.05 0.00 92 1031.0
20260509142012 57 180 0.0 1.0 0.00 0.05 0.00 92 1031.1
20260509140939 57 182 0.0 0.0 0.00 0.05 0.00 92 1031.3
20260509135959 57 182 0.0 0.0 0.00 0.05 0.05 92 1031.2
20260509134944 57 182 0.0 0.0 0.00 0.05 0.05 92 1031.2
20260509133926 57 166 0.0 0.0 0.00 0.05 0.05 92 1031.2
20260509132947 57 180 0.0 0.0 0.00 0.05 0.05 92 1031.2
20260509132012 57 180 0.0 0.0 0.00 0.05 0.05 92 1031.1
20260509131014 57 160 0.0 0.0 0.00 0.05 0.05 92 1031.3
20260509130014 57 182 0.0 3.0 0.00 0.05 0.05 92 1031.3
20260509124944 57 162 0.0 0.0 0.00 0.05 0.05 91 1031.3
20260509123926 56 162 0.0 0.0 0.00 0.05 0.05 91 1031.4
20260509122908 56 300 0.0 0.0 0.00 0.05 0.05 91 1031.4
20260509121838 56 300 0.0 0.0 0.00 0.05 0.05 91 1031.3
20260509120820 56 300 0.0 0.0 0.00 0.05 0.05 91 1031.3
20260509115839 56 257 0.0 0.0 0.00 0.05 0.05 91 1031.3
20260509114855 56 181 0.0 0.0 0.00 0.05 0.05 91 1031.3
20260509113912 56 181 0.0 0.0 0.00 0.05 0.05 91 1031.2
20260509111813 56 181 0.0 0.0 0.00 0.05 0.05 91 1031.0
20260509110814 56 180 0.0 0.0 0.00 0.05 0.05 91 1030.9
20260509105754 56 194 0.0 0.0 0.00 0.05 0.05 91 1031.0
20260509104811 56 194 0.0 0.0 0.00 0.05 0.05 91 1030.9
20260509103753 56 194 0.0 0.0 0.00 0.05 0.05 91 1030.7
20260509102741 56 175 0.0 0.0 0.00 0.05 0.05 90 1030.7
20260509101745 56 187 0.0 0.0 0.00 0.05 0.05 90 1030.8
20260509100726 56 180 0.0 2.0 0.00 0.05 0.05 90 1030.8
20260509095747 56 175 1.0 0.0 0.00 0.05 0.05 90 1030.7
20260509094735 56 167 0.0 3.0 0.00 0.05 0.05 90 1030.6
20260509093757 56 182 0.0 0.0 0.00 0.05 0.05 89 1030.6
20260509092725 56 186 1.0 3.0 0.00 0.05 0.05 89 1030.5
20260509091705 56 180 0.0 3.0 0.00 0.05 0.05 88 1030.4
20260509085526 57 188 1.0 3.0 0.00 0.05 0.05 87 1030.4
20260509084515 57 177 0.0 3.0 0.00 0.05 0.05 86 1030.3
20260509083450 57 185 1.0 5.0 0.00 0.05 0.05 86 1030.2
20260509082459 58 182 1.0 5.0 0.00 0.05 0.05 85 1030.1
20260509081458 58 190 1.0 5.0 0.00 0.05 0.05 85 1030.0
20260509080518 58 186 1.0 4.0 0.00 0.05 0.05 85 1029.9
20260509075522 58 180 1.0 6.0 0.00 0.05 0.05 86 1029.8
20260509074539 58 189 2.0 6.0 0.00 0.05 0.05 86 1029.8
20260509072344 58 177 2.0 6.0 0.00 0.05 0.05 86 1029.5
20260509071408 58 188 2.0 6.0 0.00 0.05 0.05 86 1029.4
20260509070357 59 175 1.0 4.0 0.00 0.05 0.05 87 1029.4
20260509065421 59 167 1.0 4.0 0.00 0.05 0.05 87 1029.3
20260509064357 58 173 1.0 5.0 0.00 0.05 0.05 87 1029.3
20260509063409 58 184 1.0 5.0 0.00 0.05 0.05 87 1029.3
20260509062430 58 183 1.0 4.0 0.00 0.05 0.05 87 1029.3
20260509061435 58 175 0.0 0.0 0.00 0.05 0.05 87 1029.2
20260509060418 59 192 0.0 1.0 0.00 0.05 0.05 88 1029.1
20260509055433 59 207 0.0 4.0 0.00 0.05 0.05 89 1029.2
20260509054437 58 175 0.0 4.0 0.00 0.05 0.05 89 1029.1
20260509053403 58 232 0.0 0.0 0.00 0.05 0.05 90 1029.1
20260509052341 58 152 0.0 6.0 0.00 0.05 0.05 89 1029.1
20260509051325 58 163 2.0 8.0 0.00 0.05 0.05 88 1029.1
20260509050344 58 178 3.0 8.0 0.00 0.05 0.05 87 1029.2
20260509044251 58 201 2.0 8.0 0.00 0.05 0.05 88 1029.2
20260509043258 58 171 3.0 9.0 0.00 0.05 0.05 88 1029.2
20260509042301 58 194 4.0 9.0 0.00 0.05 0.05 88 1029.2
20260509041249 58 167 3.0 8.0 0.00 0.05 0.05 89 1029.2
20260509040228 58 188 3.0 6.0 0.00 0.05 0.05 91 1029.2
20260509034019 58 184 1.0 4.0 0.00 0.05 0.05 93 1029.2
20260509032949 57 192 1.0 7.0 0.00 0.05 0.05 92 1029.2
20260509031951 57 189 2.0 7.0 0.00 0.05 0.05 92 1029.3
20260509030933 57 179 2.0 6.0 0.00 0.05 0.05 92 1029.4
20260509025927 57 171 0.0 5.0 0.00 0.05 0.05 93 1029.6
20260509024904 57 211 1.0 5.0 0.00 0.05 0.05 93 1029.7
20260509023901 57 178 1.0 5.0 0.00 0.05 0.05 93 1029.9
20260509022844 57 178 1.0 5.0 0.00 0.05 0.05 93 1029.9
20260509021814 57 162 1.0 5.0 0.00 0.05 0.05 93 1030.1
20260509020743 57 218 0.0 3.0 0.00 0.05 0.05 93 1030.1
20260509015744 57 195 2.0 5.0 0.00 0.05 0.05 93 1030.2
20260509014808 57 221 2.0 8.0 0.00 0.05 0.05 93 1030.2
20260509013807 57 192 3.0 8.0 0.00 0.06 0.05 94 1030.2
20260509012754 56 182 2.0 6.0 0.00 0.06 0.05 94 1030.2
20260509011738 57 165 0.0 4.0 0.00 0.05 0.04 94 1030.2
20260509010736 56 216 1.0 4.0 0.00 0.05 0.04 94 1030.2
20260509005702 56 202 1.0 4.0 0.00 0.05 0.04 94 1030.2
20260509004717 56 224 1.0 4.0 0.00 0.05 0.04 94 1030.3
20260509002540 56 236 1.0 7.0 0.00 0.05 0.04 94 1030.2
20260509001605 55 211 1.0 7.0 0.00 0.05 0.04 94 1030.2
20260509000549 55 182 1.0 7.0 0.00 0.05 0.04 94 1030.3